This demonstration page uses our WeatherBlox Daily Observations layout. Learn more.

Left ArrowRight Arrow

Hourly Observations for September 28, 2021

Temp ( °F °C ) Dew Point ( °F °C ) Humidity (%) Winds ( mph kmh ) Pressure ( in mb ) Visibility ( mi km ) Precip ( " mm )
12:52 am 00:52 Clear 69 20.6 56 13.3 63 63 WSW 3 6 29.83 1010 10 16 0.00 0.00
1:52 am 01:52 Clear 65 18.3 57 13.9 76 76 NNW 3 6 29.82 1010 10 16 0.00 0.00
2:52 am 02:52 Clear 60 15.6 56 13.3 86 86 NNW 6 9 29.82 1010 10 16 0.00 0.00
3:52 am 03:52 Clear 63 17.2 55 12.8 76 76 WNW 3 6 29.82 1010 10 16 0.00 0.00
4:52 am 04:52 Clear 57 13.9 54 12.2 90 90 NW 6 9 29.83 1010 10 16 0.00 0.00
5:52 am 05:52 Clear 57 13.9 54 12.2 90 90 Calm 29.84 1010 10 16 0.00 0.00
6:52 am 06:52 Clear 56 13.3 54 12.2 93 93 Calm 29.84 1011 10 16 0.00 0.00
7:52 am 07:52 Mostly Cloudy 63 17.2 55 12.8 76 76 SSE 6 9 29.85 1011 10 16 0.00 0.00
8:52 am 08:52 Mostly Cloudy 67 19.4 56 13.3 68 68 SE 6 9 29.85 1011 10 16 0.00 0.00
9:52 am 09:52 Mostly Cloudy 72 22.2 57 13.9 59 59 SSE 6 9 29.85 1011 10 16 0.00 0.00
10:52 am 10:52 Mostly Cloudy 76 24.4 57 13.9 52 52 SSE 7 11 29.85 1011 10 16 0.00 0.00
11:52 am 11:52 Mostly Cloudy 82 27.8 57 13.9 42 42 SE 9 15 29.84 1010 10 16 0.00 0.00
12:52 pm 12:52 Mostly Cloudy 87 30.6 57 13.9 36 36 SSE 13 20 29.82 1010 10 16 0.00 0.00
1:52 pm 13:52 Partly Cloudy 91 32.8 57 13.9 32 32 SSE 12 19 29.79 1009 10 16 0.00 0.00
2:52 pm 14:52 Partly Cloudy 93 33.9 57 13.9 30 30 S 17 28 29.77 1008 10 16 0.00 0.00
3:52 pm 15:52 Mostly Sunny 94 34.4 57 13.9 29 29 SSE 16 26 29.76 1008 10 16 0.00 0.00
4:52 pm 16:52 Mostly Sunny 92 33.3 56 13.3 30 30 S 15 24 29.76 1008 10 16 0.00 0.00
5:52 pm 17:52 Mostly Sunny 91 32.8 57 13.9 32 32 SE 16 26 29.75 1008 10 16 0.00 0.00
6:52 pm 18:52 Mostly Sunny 85 29.4 56 13.3 37 37 SSE 12 19 29.76 1008 10 16 0.00 0.00
7:52 pm 19:52 Mostly Clear 80 26.7 55 12.8 42 42 SSE 12 19 29.78 1008 10 16 0.00 0.00
8:52 pm 20:52 Mostly Clear 78 25.6 54 12.2 43 43 SSE 13 20 29.79 1009 10 16 0.00 0.00
9:52 pm 21:52 Mostly Clear 77 25 54 12.2 45 45 SSE 12 19 29.80 1009 10 16 0.00 0.00
10:52 pm 22:52 Mostly Clear 75 23.9 56 13.3 52 52 S 8 13 29.82 1010 10 16 0.00 0.00
11:52 pm 23:52 Mostly Clear 74 23.3 55 12.8 52 52 S 9 15 29.82 1010 10 16 0.00 0.00

Powered by AerisWeather